Flag for U.S.A. Weather past 2 weeks in St. Augustine, Florida, U.S.A.

Now
77 °F

Partly sunny.


Feels Like: 78 °F
Forecast: 50 / 75 °F
Wind: 13 mph from West

Location: St. Augustine Airport

Current Time: Mar 30, 2015 at 4:25:05 PM

Latest Report: Mar 30, 2015 at 3:58 PM


Visibility: 10 mi

Pressure: 30.14 "Hg

Humidity: 42%

Dew point: 52 °F

Location of St. AugustineLocation

Historic Weather in St. Augustine — Graph

°F

St. Augustine temperature yesterday

Maximum temperature yesterday: 60 °F (at 1:58 PM)
Minimum temperature yesterday: 45 °F (at 1:58 AM)
Average temperature yesterday: 53 °F

Past Weeks' High & Low Weather Summary

 TemperatureHumidityPressure
High86 °F (Mar 17, 2:58 PM)100% (Mar 20, 5:04 AM)30.41 "Hg (Mar 20, 5:04 AM)
Low45 °F (Mar 29, 1:58 AM)27% (Mar 28, 4:58 PM)29.73 "Hg (Mar 27, 4:58 PM)
Average65 °F84%30.06 "Hg
* Reported Mar 15 2:58 PM — Mar 30 2:58 PM, St. Augustine, Weather by CustomWeather, © 2015

Note: Actual official high and low records may vary slightly from our data, if they occured in-between our weather recording intervals... More about our weather records

Advertising

St. Augustine weather history for previous 24 hours

 ConditionsComfort  
Time TempWeatherWind HumidityBarometerVisibility
2:58 PM
Mon, Mar 30
75 °FOvercast.10 mph40%30.19 "Hg10 mi
1:58 PM74 °FSunny.6 mph38%30.23 "Hg10 mi
12:58 PM71 °FSunny.9 mph38%30.27 "Hg10 mi
11:58 AM70 °FSunny.9 mph38%30.29 "Hg10 mi
10:58 AM67 °FSunny.7 mph44%30.29 "Hg10 mi
9:58 AM64 °FSunny.8 mph58%30.30 "Hg10 mi
8:58 AM56 °FSunny.3 mph75%30.30 "Hg10 mi
7:58 AM47 °FClear.No wind90%30.28 "Hg10 mi
6:58 AM45 °FClear.No wind93%30.27 "Hg10 mi
5:58 AM45 °FClear.3 mph93%30.25 "Hg10 mi
4:58 AM45 °FClear.No wind93%30.26 "Hg10 mi
3:58 AM46 °FClear.5 mph89%30.27 "Hg10 mi
2:58 AM45 °FClear.No wind90%30.29 "Hg10 mi
1:58 AM46 °FClear.No wind89%30.32 "Hg10 mi
12:58 AM50 °FClear.No wind80%30.34 "Hg10 mi
11:58 PM
Sun, Mar 29
55 °FClear.8 mph69%30.35 "Hg10 mi
10:58 PM55 °FClear.8 mph64%30.37 "Hg10 mi
9:58 PM56 °FClear.12 mph62%30.36 "Hg10 mi
8:58 PM54 °FClear.7 mph67%30.37 "Hg10 mi
7:58 PM55 °FSunny.7 mph64%30.36 "Hg10 mi
6:58 PM58 °FSunny.9 mph56%30.36 "Hg10 mi
5:58 PM59 °FScattered clouds.12 mph58%30.35 "Hg10 mi
4:58 PM60 °FPassing clouds.9 mph52%30.35 "Hg10 mi
Weather by CustomWeather, © 2015

See weather overviewHow to use our weather pages